Probability
0 0 1 1 1 0 0 0 1 2 1 0 0 0 0 0 0 0 1 2 4 5 4 3 3 4 5 6 5 4 5 5 5 3 1 0 0 0 0 0 0 0 0
0 1 2 2 2 1 0 0 2 2 1 0 0 0 0 0 0 0 1 2 5 6 6 4 3 4 5 5 5 5 5 6 5 2 1 0 0 0 0 0 0 0 0
1 1 2 2 2 2 1 1 1 2 2 1 0 0 0 0 0 0 0 1 3 5 6 5 4 4 4 4 4 5 5 5 4 1 0 0 0 0 0 0 0 0 0
2 3 3 2 1 2 2 2 1 2 2 1 0 0 0 0 0 0 0 0 1 2 3 4 4 5 5 4 5 5 6 6 3 1 0 0 0 0 0 1 1 0 1
3 4 4 4 3 3 3 3 2 1 1 0 0 0 0 0 0 0 0 0 0 1 1 2 4 5 6 5 6 8 8 6 4 2 1 0 0 0 0 1 1 1 1
4 5 6 6 5 5 4 4 4 2 1 0 0 0 0 0 0 0 0 0 0 0 0 1 2 3 4 5 7 9 8 7 7 6 3 1 0 0 0 0 0 1 1
6 6 6 6 6 6 6 6 5 3 2 1 1 1 0 0 0 0 0 0 0 0 0 0 1 1 2 3 5 7 8 9 10 9 7 3 1 1 0 0 0 1 2
8 7 7 6 6 6 6 5 4 3 3 3 2 2 1 0 0 0 0 0 0 0 0 0 0 0 1 2 3 5 7 9 10 11 10 7 4 2 0 0 0 1 2
9 8 7 6 6 6 5 4 3 3 3 3 3 3 1 0 1 1 0 0 0 0 0 0 0 0 1 3 3 3 4 6 8 10 9 7 5 2 0 0 0 0 1
6 6 5 4 4 4 3 3 3 3 3 3 3 3 2 1 2 2 1 0 0 0 0 0 0 0 1 3 3 3 3 3 5 6 6 6 6 3 1 1 1 1 2
2 2 2 2 1 1 1 1 1 2 2 2 2 2 2 1 2 2 1 0 0 0 0 0 0 0 0 1 2 2 1 1 2 3 4 5 6 5 4 3 2 1 2
0 0 0 0 0 0 0 0 0 1 1 1 1 1 1 0 1 1 1 0 0 0 0 0 0 0 0 0 1 1 1 0 0 1 1 3 5 5 5 4 2 1 1
0 0 0 0 0 0 0 0 0 0 0 0 0 0 0 0 0 0 0 0 0 0 0 0 0 0 1 1 1 1 0 0 0 0 0 1 2 3 4 3 2 0 0
0 0 0 0 0 0 0 0 0 0 0 0 0 0 0 0 0 0 0 0 0 0 0 0 0 0 1 2 1 0 0 0 0 0 0 0 0 1 3 3 2 0 0
1 1 1 0 0 0 0 0 0 0 0 0 0 0 0 1 1 1 0 0 0 0 0 0 0 0 1 1 1 0 0 0 0 0 0 0 0 1 2 2 1 0 0
2 2 2 1 1 1 1 1 1 2 2 2 1 1 1 1 1 1 0 0 0 0 0 0 0 0 0 0 0 0 0 0 0 0 0 0 0 0 1 1 1 0 0
3 3 3 3 3 3 2 2 3 4 5 4 3 2 1 1 0 0 0 0 0 0 0 0 0 0 0 0 0 0 0 0 0 0 0 0 0 0 0 0 0 0 0
4 4 4 4 4 4 3 3 4 5 6 5 4 2 1 0 0 0 0 0 0 0 0 0 0 0 0 0 0 0 0 0 0 0 0 0 0 0 0 0 0 0 0
5 5 4 4 4 3 3 3 3 4 4 4 4 3 1 0 0 0 0 0 0 0 0 0 0 0 0 0 0 0 0 0 0 0 0 0 0 0 0 0 0 0 0
6 6 6 4 3 3 3 3 3 3 3 3 3 3 1 0 0 0 0 0 1 1 1 1 1 1 1 0 0 0 0 0 0 0 0 1 1 0 0 0 0 0 0
8 8 8 6 4 3 3 3 3 3 3 3 3 2 1 0 0 0 0 0 1 2 2 2 2 2 1 0 0 0 0 0 0 0 0 1 1 1 1 0 0 0 0
8 8 8 7 5 3 3 2 2 2 2 2 2 1 0 0 0 0 0 0 1 1 1 1 1 1 1 0 0 0 0 0 0 0 0 1 1 1 1 0 0 0 0
7 7 8 8 6 3 1 1 1 1 1 1 1 0 0 0 0 0 0 0 0 0 0 0 0 0 0 0 0 0 0 0 0 0 0 0 0 1 1 0 0 0 0
6 6 7 7 5 2 0 0 0 0 0 0 0 0 0 0 0 0 0 0 0 0 0 0 0 0 0 0 0 0 0 0 0 0 0 0 0 0 0 0 0 0 0
6 6 6 5 3 2 1 0 0 0 0 0 0 0 0 0 0 0 0 0 0 0 0 0 0 0 0 0 0 0 0 0 0 0 0 0 0 0 0 0 0 0 0
6 6 5 4 3 2 1 0 0 0 0 0 0 0 0 0 0 0 0 0 0 0 0 0 0 0 0 0 0 0 0 0 0 0 0 0 0 0 0 0 0 0 0
Wind_Speed
3 2 2 2 2 1 1 1 1 1 2 2 2 3 3 3 3 3 3 9 10 10 10 11 11 11 11 11 11 12 12 12 11 10 10 10 10 10 9 8 8 8 9
3 3 3 2 2 1 2 2 2 2 2 2 2 2 3 3 3 3 3 5 10 10 10 10 11 11 11 10 11 11 12 13 12 11 11 10 10 10 9 9 9 9 9
3 3 3 2 2 2 2 2 2 2 2 2 2 2 2 2 3 3 3 2 4 8 10 9 10 10 10 10 10 11 11 12 12 12 12 12 11 10 10 9 9 9 9
4 3 3 3 2 2 2 2 2 2 2 2 1 1 1 2 2 3 3 3 2 3 6 9 9 9 10 10 10 11 11 11 12 12 12 12 12 11 10 10 10 10 10
4 4 3 2 3 2 2 2 2 2 2 1 1 1 1 2 2 3 3 3 3 3 3 6 9 9 10 10 10 10 11 11 11 11 11 12 12 11 11 11 10 10 10
4 4 3 3 3 3 2 2 3 2 2 1 1 1 0 1 1 2 2 2 2 3 3 3 3 5 9 9 9 10 10 10 10 11 11 11 11 11 11 11 11 11 10
4 4 3 3 3 3 3 3 3 3 2 1 2 2 2 2 0 0 1 1 2 3 3 3 3 2 3 8 9 10 10 10 10 11 11 11 10 10 10 11 12 12 11
4 4 4 3 3 3 3 3 3 2 1 1 2 2 2 3 2 1 0 1 1 1 2 3 3 4 3 2 5 10 10 10 11 11 12 11 10 10 10 10 12 12 12
3 3 4 3 3 3 3 3 3 4 2 1 1 3 3 2 1 2 1 1 1 1 2 1 3 4 4 3 3 7 10 10 11 12 12 11 11 11 11 11 12 12 12
3 3 3 3 3 3 3 3 3 3 4 2 0 1 2 3 2 1 2 2 1 1 2 2 2 3 3 3 4 7 9 10 11 11 12 11 11 12 11 11 11 12 12
2 3 4 4 3 2 3 3 3 3 2 2 1 1 1 1 2 2 1 2 2 1 1 2 2 2 3 3 3 5 8 9 10 10 10 11 11 11 11 11 11 11 11
1 2 3 3 3 2 3 3 3 3 2 2 2 2 2 2 2 2 2 1 2 2 1 1 1 2 2 3 4 6 6 7 8 9 9 9 10 10 10 11 11 11 11
1 1 2 3 3 3 3 3 3 3 3 3 2 1 2 2 2 2 2 1 1 2 2 1 1 1 2 2 3 5 5 6 7 8 8 8 9 9 9 9 9 9 9
2 2 2 3 3 3 3 3 2 2 2 2 2 2 1 1 2 2 2 2 0 1 1 2 2 1 1 2 3 4 3 6 6 7 7 7 8 8 8 8 8 7 7
2 2 2 2 2 3 3 3 2 2 2 2 2 1 1 1 1 1 2 3 3 1 2 2 2 2 1 1 3 2 3 5 6 6 7 7 8 8 8 8 8 8 7
2 3 2 2 2 2 3 3 2 2 2 1 1 1 1 1 1 1 1 1 2 3 2 2 2 2 1 1 2 2 3 4 6 7 7 8 8 8 8 8 8 8 8
3 3 3 3 3 3 2 3 2 2 2 1 1 1 1 1 1 1 1 1 1 2 2 2 1 1 0 1 1 1 2 2 3 6 7 8 8 8 9 8 8 8 8
2 3 3 3 3 2 2 3 2 2 2 2 2 1 1 1 1 1 1 1 1 2 2 1 1 1 1 2 1 1 1 2 2 4 7 8 8 8 8 8 8 8 8
3 3 3 3 3 2 2 2 2 2 2 2 2 2 2 1 1 1 1 1 1 1 1 2 1 1 1 1 1 1 1 1 2 2 4 6 7 7 7 7 7 7 7
3 3 3 3 3 2 2 2 2 1 1 1 1 2 2 2 2 2 1 1 1 1 1 1 1 1 1 1 0 1 2 2 2 2 2 2 3 5 5 6 6 6 7
3 3 3 3 2 2 1 2 1 1 1 0 0 0 1 2 2 2 2 2 2 1 1 0 0 0 1 0 1 1 1 2 2 1 1 1 1 2 3 4 6 7 8
2 3 3 3 2 1 1 2 2 1 1 1 0 1 0 1 1 2 2 2 3 3 2 1 1 1 2 2 1 1 1 1 2 2 0 2 1 2 3 2 5 7 8
3 2 3 3 2 2 2 3 3 2 1 1 1 0 1 1 1 0 0 0 1 2 4 3 2 3 3 2 2 1 2 2 3 2 0 2 2 3 3 4 6 7 7
3 3 3 3 2 2 2 3 2 2 1 1 1 1 1 1 1 1 1 0 1 2 2 2 3 4 3 3 3 3 3 2 2 2 1 2 2 3 3 2 5 6 6
3 2 3 3 3 2 3 2 2 1 1 1 1 1 1 1 1 0 1 1 2 2 2 2 3 4 4 4 3 1 0 0 2 2 1 2 2 2 2 2 3 4 5
3 3 2 2 3 3 3 3 3 2 1 0 1 1 1 1 1 0 1 2 2 3 2 2 2 3 2 3 3 3 3 2 1 2 2 1 1 0 2 2 2 2 2
Wind_Direction
166 163 159 162 165 146 141 141 152 151 141 119 133 137 143 151 160 163 178 186 187 185 182 181 180 182 183 184 185 185 184 180 180 179 175 174 174 177 181 182 181 178 173
160 159 151 151 150 147 143 141 147 137 130 128 130 144 153 159 164 167 170 187 189 189 187 184 186 187 189 189 189 190 189 185 184 185 185 182 180 181 184 187 186 184 182
162 155 147 145 146 139 130 128 112 110 123 124 127 146 157 167 170 170 172 180 187 192 191 190 190 190 191 191 191 193 192 190 191 190 190 187 186 186 190 190 190 190 190
159 147 145 147 146 135 128 127 107 100 101 106 117 150 164 164 173 173 173 176 176 186 194 196 195 193 193 195 194 193 193 193 194 195 193 193 192 191 194 193 193 194 195
158 149 145 143 139 128 125 130 104 114 114 108 127 135 157 161 176 172 169 177 181 185 185 195 198 197 197 198 196 197 197 196 197 198 197 199 198 196 198 197 197 198 199
153 141 138 137 132 127 125 119 115 112 121 133 121 90 44 186 158 168 179 173 178 190 193 196 194 201 201 198 200 202 200 198 199 200 199 199 199 201 203 202 203 203 203
148 139 135 132 132 138 149 142 122 111 101 100 86 50 11 11 56 193 169 164 176 189 192 198 194 199 204 203 203 205 206 205 203 201 199 198 199 203 207 209 207 207 206
145 145 139 142 142 136 136 136 123 113 100 95 116 103 36 358 350 346 187 179 187 183 203 206 197 198 202 197 208 210 212 210 208 206 204 203 202 204 210 213 213 212 211
135 139 144 145 146 145 151 149 137 133 139 90 114 132 135 204 301 331 304 257 228 202 217 215 205 205 203 200 209 216 214 212 214 215 212 209 208 208 213 217 217 215 215
124 136 134 135 139 142 147 154 139 134 137 149 119 119 154 156 152 313 327 321 283 219 214 220 210 216 203 198 209 214 214 214 218 220 219 217 215 214 217 221 224 222 220
118 129 130 125 128 136 143 138 133 131 136 152 165 145 110 95 130 153 257 315 330 290 234 224 217 218 209 203 206 216 214 214 215 220 223 220 219 219 220 223 225 224 223
117 125 130 128 136 141 142 143 140 139 143 143 143 145 149 151 175 162 191 248 281 289 284 236 219 223 221 216 218 212 210 211 212 217 219 216 216 221 222 223 224 225 225
133 160 148 139 143 147 145 139 137 145 151 147 153 161 167 177 168 156 154 208 259 294 316 299 249 231 223 211 221 214 211 210 212 212 211 212 215 217 219 220 222 227 229
166 159 147 141 143 145 143 136 132 150 145 148 149 160 168 184 170 165 162 157 148 320 315 286 297 257 249 214 217 209 214 211 216 215 211 209 212 214 215 214 214 218 223
142 131 137 141 149 150 148 140 135 141 133 143 163 165 168 190 180 168 165 162 155 183 264 268 277 276 263 236 219 208 216 215 217 218 214 214 215 214 215 213 214 215 217
114 118 124 134 133 135 140 135 134 144 137 155 173 149 163 200 186 172 177 177 167 170 222 250 245 261 264 260 225 214 229 221 222 217 214 214 218 219 218 218 218 218 217
125 125 129 128 126 123 128 130 139 146 151 177 197 178 205 192 167 205 186 180 184 165 200 268 270 286 275 271 299 265 244 233 236 223 219 218 221 223 225 225 223 222 220
135 135 131 124 120 114 117 136 160 162 162 173 192 172 213 189 173 194 179 190 195 182 174 224 286 300 271 256 267 268 260 240 237 231 225 223 223 225 227 227 226 224 221
128 121 120 124 126 123 118 117 129 137 163 180 178 174 195 169 187 196 181 188 202 182 163 173 251 267 280 286 318 302 297 297 263 255 238 229 227 228 232 232 232 228 225
137 135 132 140 142 135 131 131 125 120 135 178 185 181 190 185 190 189 185 195 170 116 122 163 249 287 286 298 17 308 314 307 288 286 284 242 226 226 232 236 237 232 230
151 147 136 139 133 131 154 149 147 138 138 131 43 176 190 160 170 178 172 187 162 156 143 150 240 309 297 313 271 267 277 295 288 279 296 288 263 244 237 240 240 240 238
147 137 143 145 137 152 142 131 135 133 134 128 98 337 332 107 128 135 153 168 171 178 188 193 224 230 252 237 239 244 255 312 295 290 255 283 238 255 248 230 239 238 238
142 139 155 152 157 187 153 118 115 134 144 156 175 247 343 18 32 192 216 205 203 213 197 186 201 226 232 228 211 243 237 227 242 254 183 277 277 267 262 258 249 240 240
161 166 178 177 167 190 158 131 117 118 129 194 203 189 193 277 304 183 166 250 283 273 234 201 207 228 230 228 210 210 222 251 277 276 175 246 271 266 278 275 266 253 245
172 179 180 178 177 203 189 168 141 122 99 307 281 194 175 202 286 228 146 229 286 293 273 237 230 237 245 247 218 157 181 129 290 286 225 204 258 271 276 270 276 265 259
182 180 187 190 186 195 195 178 154 140 140 254 300 276 242 215 246 98 165 190 241 271 299 317 307 297 279 272 239 190 187 188 239 277 260 190 250 279 299 286 279 276 267